Regional Weather Roundup
Issued by NWS San Angelo, TX

Current Version | Previous Version | Text Only | Print | Product List | Glossary On
Versions: 1 2 3 4 5 6 7 8 9 10 11 12 13 14 15 16 17 18 19 20 21 22 23 24 25 26 27 28 29 30 31 32 33 34 35 36 37 38 39 40 41 42 43 44 45 46 47 48 49 50
000
ASUS44 KSJT 301711
RWRSJT
WEST CENTRAL TEXAS REGIONAL WEATHER ROUNDUP
NATIONAL WEATHER SERVICE SAN ANGELO TX
1200 PM CDT THU JUN 30 2016

NOTE: "FAIR" INDICATES FEW OR NO CLOUDS BELOW 12,000 FEET WITH NO
SIGNIFICANT WEATHER AND/OR OBSTRUCTIONS TO VISIBILITY.

TXZ049-054-064>066-071>073-076>078-098-099-113-114-127-128-139-140-
154-155-168>170-301800
...LOCATIONS ACROSS WEST CENTRAL TEXAS...

CITY           SKY/WX    TMP DP  RH WIND       PRES   REMARKS
SAN ANGELO     SUNNY     87  65  47 CALM      30.08S
ABILENE        SUNNY     87  65  47 VRB3      30.08S
DYESS AFB      SUNNY     90  66  45 E6        30.05F
JUNCTION       SUNNY     88  65  46 N6        30.07F
SWEETWATER     SUNNY     85  62  45 E3        30.12F
BROWNWOOD      LGT RAIN  86  68  54 SE3       30.07F
COLEMAN        SUNNY     87  65  47 SE5       30.08F
SONORA         MOSUNNY   86  66  51 CALM      30.13S
OZONA          FAIR      86  64  48 SW7       30.12S
BRADY          NOT AVBL
$$

TEXAS PANHANDLE/OKLAHOMA PANHANDLE

CITY           SKY/WX    TMP DP  RH WIND       PRES   REMARKS
AMARILLO       SUNNY     84  61  45 S9        30.13F
BORGER         SUNNY     82  63  52 S7        30.11S
CANADIAN       CLOUDY    83  68  59 NW6       30.05S
DALHART        CLOUDY    80  62  54 S5        30.15F
DUMAS          SUNNY     84  60  43 CALM      30.14F
GUYMON         NOT AVBL
HEREFORD       CLOUDY    86  61  42 SW13G20   30.14F
PAMPA          MOSUNNY   83  65  53 SW10      30.12F
PERRYTON       SUNNY     84  64  49 W3        30.08F
$$

SOUTHERN PANHANDLE/SOUTH PLAINS/ROLLING PLAINS

CITY           SKY/WX    TMP DP  RH WIND       PRES   REMARKS
LUBBOCK        MOSUNNY   87  60  40 SW9       30.12F
SNYDER           N/A     84  65  51 CALM      30.10F
CHILDRESS      MOSUNNY   83  71  67 SE7       30.05R
SEMINOLE       SUNNY     88  56  33 SE7       30.14F
$$

PERMIAN BASIN

CITY           SKY/WX    TMP DP  RH WIND       PRES   REMARKS
MIDLAND        SUNNY     86  63  45 SE5       30.12S
ODESSA         SUNNY     86  63  45 SE9       30.13S
WINK           SUNNY     86  63  45 E7        30.09S
$$

FAR WEST/SOUTHWEST MOUNTAINS/TRANS PECOS

CITY           SKY/WX    TMP DP  RH WIND       PRES   REMARKS
ALPINE         MOSUNNY   83  55  38 NE7       30.25S
DRYDEN           N/A     90  65  43 NE6       30.05F
EL PASO        PTSUNNY   86  55  34 SE6       30.12F
FORT STOCKTON  SUNNY     88  61  40 VRB6      30.10F
GUADALUPE PASS CLOUDY    76  55  48 CALM      30.27S
MARFA          SUNNY    N/A N/A N/A CALM      30.23F
PECOS          SUNNY     89  57  33 W3        30.07F
$$

DALLAS/FORT WORTH METROPLEX

CITY           SKY/WX    TMP DP  RH WIND       PRES   REMARKS
DFW AIRPORT    PTSUNNY   92  67  43 SW10      30.02F
FTW MEACHAM    MOSUNNY   90  68  48 SW10      30.02F
DAL-EXECUTIVE  MOSUNNY   88  68  51 SW6       30.02F
GRAND PRAIRIE  MOSUNNY   90  66  45 S7        30.03F
ADDISON        MOSUNNY   90  68  48 SE7         N/A
MESQUITE       SUNNY     90  66  45 SE6       30.03F
LANCASTER      MOSUNNY   90  67  46 S5        30.03F
$$

NORTH CENTRAL TEXAS

CITY           SKY/WX    TMP DP  RH WIND       PRES   REMARKS
SHRMAN/DENISON SUNNY     91  67  44 S7        30.04F
GAINESVILLE    MOSUNNY   87  68  53 SW9       30.05F
BRIDGEPORT     CLOUDY    87  71  57 SW7       30.05F
DENTON         MOSUNNY   89  69  51 S9        30.02F
WAXAHACHIE     MOSUNNY   89  69  51 S6        30.04F
GRANBURY       MOSUNNY   89  69  50 S8        30.05S
$$

WESTERN NORTH TEXAS

CITY           SKY/WX    TMP DP  RH WIND       PRES   REMARKS
WICHITA FALLS  MOSUNNY   88  70  55 SW12      30.02F
VERNON         MOSUNNY   88  62  41 SW13      30.03S
BRECKENRIDGE   MOSUNNY   88  67  49 S7        30.04F
COMANCHE       SUNNY     88  68  52 NE5       30.07F
$$

CENTRAL AND SOUTH CENTRAL TEXAS

CITY           SKY/WX    TMP DP  RH WIND       PRES   REMARKS
AUSTIN/BERGSTM PTSUNNY   89  71  55 E7        30.01S
WACO           PTSUNNY   89  68  49 S6        30.03S
HILLSBORO      MOSUNNY   88  70  55 S5        30.03F
TEMPLE         MOSUNNY   89  72  56 VRB5      30.03F
KILLEEN-GRAY   PTSUNNY   87  70  56 E6        30.04S
FORT HOOD      PTSUNNY   87  70  56 S6        30.03S
GEORGETOWN     NOT AVBL
LAGO VISTA     PTSUNNY   88  69  54 SE7       30.06S
SAN MARCOS     MOSUNNY   90  72  55 NE5       30.02F
NEW BRAUNFELS  MOSUNNY   91  71  51 N6        30.00F
RANDOLPH AFB   MOSUNNY   90  72  54 VRB2      30.01F
SAN ANTONIO    PTSUNNY   88  70  55 N8        30.01F
STINSON        PTSUNNY   93  71  48 NW3       29.98F
PLEASANTON     NOT AVBL
LA GRANGE        N/A     91  72  54 E6        29.98S
GIDDINGS       MOSUNNY   89  71  55 E8        30.04F
$$

EAST TEXAS

CITY           SKY/WX    TMP DP  RH WIND       PRES   REMARKS
PARIS          MOSUNNY   90  64  43 S6        30.03F
CLARKSVILLE    NOT AVBL
TYLER          SUNNY     91  66  43 VRB5      30.03S
LONGVIEW       SUNNY     89  68  49 MISG      30.02S
PALESTINE      SUNNY     89  70  54 E3        30.03F
NACOGDOCHES    SUNNY     90  70  51 NE5       30.01S
$$

TEXAS HILL COUNTRY AND EDWARDS PLATEAU

CITY           SKY/WX    TMP DP  RH WIND       PRES   REMARKS
LLANO          MOSUNNY   90  72  55 CALM      30.07F
HORSESHOE BAY  PTSUNNY   88  70  55 CALM      30.04F
KERRVILLE      PTSUNNY   85  69  57 CALM      30.07S
FREDERICKSBRG  MOSUNNY   87  65  47 CALM      30.07S
ROCKSPRINGS    MOSUNNY   88  66  48 E5        30.12S
HONDO          MOSUNNY   91  70  49 N6        30.04S
UVALDE         MOSUNNY   89  67  48 CALM      30.03F
DEL RIO        MOSUNNY   90  69  50 SE7       30.00F
$$

SOUTHEAST TEXAS

CITY           SKY/WX    TMP DP  RH WIND       PRES   REMARKS
COLLEGE STN    SUNNY     89  71  55 E8        30.01S
CALDWELL       MOSUNNY   88  70  55 CALM      30.04F
CROCKETT       SUNNY     90  72  55 E6        30.04F
BRENHAM        MOSUNNY   91  72  53 E8        30.01S
HUNTSVILLE     MOSUNNY   88  70  55 VRB3      30.01S
CONROE         MOSUNNY   89  73  59 E8        30.00S
HOUSTON BUSH   MOSUNNY   89  72  56 E8        29.98F
HOUSTON HOBBY  MOSUNNY   90  72  55 NE10      29.97S
PERLAND        MOSUNNY   90  72  55 E8        29.99S
WHARTON        SUNNY     93  72  51 N7        29.98F
$$

THE UPPER TEXAS COAST

CITY           SKY/WX    TMP DP  RH WIND       PRES   REMARKS
ORANGE         MOSUNNY   88  68  51 E5        29.99S
PORT ARTHUR    MOSUNNY   90  74  59 N6        29.97S
GALVESTON      MOSUNNY   87  78  74 N12       29.99R
ANGLETON       PTSUNNY   89  76  65 N7        29.97S
BAY CITY       PTSUNNY   90  74  58 NW3       29.97F
$$

TEXAS COASTAL BEND, RIO GRANDE PLAINS DEEP SOUTH TEXAS

CITY           SKY/WX    TMP DP  RH WIND       PRES   REMARKS
VICTORIA       MOSUNNY   91  73  55 VRB5      29.98F
BEEVILLE       FAIR      89  73  59 NE3       29.99S
ROCKPORT       CLOUDY    89  74  60 CALM      29.98S
PORT ARANSAS   CLOUDY    84  77  77 CALM      29.98F
PORT LAVACA    CLOUDY    87  75  66 CALM      29.97F
CORPUS CHRISTI PTSUNNY   93  71  48 CALM      29.97F
KINGSVILLE NAS MOSUNNY   91  76  61 NE5       29.97F
COTULLA        MOSUNNY   94  65  38 E7        29.99S
LAREDO         MOSUNNY   92  69  47 E7        29.98F
BROWNSVILLE    MOSUNNY   92  72  51 S6        29.97R
PORT ISABEL    MOSUNNY   90  77  65 E14       29.96S
HEBBRONVILLE   SUNNY     92  63  38 SE5       30.00S
MCALLEN        SUNNY     95  71  45 VRB6      29.96S
WESLACO        SUNNY     92  20   7 CALM      29.95F
FALFURRIAS     SUNNY     92  67  43 CALM      29.96F
EDINBURG       SUNNY     95  65  37 CALM      29.97S
$$



USA.gov is the U.S. government's official web portal to all federal, state and local government web resources and services.